Flag for Germany Weather past 2 weeks in Kreuztal, North Rhine-Westphalia, Germany

Now
57 °F

Rain. Fog.


Feels Like: 54 °F
Forecast: 47 / 64 °F
Wind: 14 mph from Northwest

Location: Hessen

Current Time: Sep 1, 2015 at 2:54:11 PM

Latest Report: Sep 1, 2015 at 1:50 PM


Visibility: 1 mi

Pressure: 29.86 "Hg

Humidity: 100%

Dew point: 57 °F

Location of KreuztalLocation

Historic Weather in Kreuztal — Graph

°F

Kreuztal temperature yesterday

Maximum temperature yesterday: 84 °F (at 2:50 PM)
Minimum temperature yesterday: 73 °F (at 7:50 AM)
Average temperature yesterday: 79 °F

Past Weeks' High & Low Weather Summary

 TemperatureHumidityPressure
High86 °F (Aug 30, 5:50 PM)100% (Aug 17, 1:20 PM)30.30 "Hg (Aug 17, 1:20 PM)
Low48 °F (Aug 18, 7:20 AM)31% (Aug 31, 2:50 PM)29.68 "Hg (Aug 24, 1:50 PM)
Average64 °F74%30.04 "Hg
* Reported Aug 17 1:20 PM — Sep 1 1:20 PM, Kreuztal, Weather by CustomWeather, © 2015

Note: Actual official high and low records may vary slightly from our data, if they occured in-between our weather recording intervals... More about our weather records

Advertising

Kreuztal weather history for previous 24 hours

 ConditionsComfort  
Time TempWeatherWind HumidityBarometerVisibility
1:20 PM
Tue, Sep 1
57 °FRain. Fog.9 mph100%29.86 "Hg1 mi
12:50 PM57 °FRain. Fog.12 mph100%29.86 "Hg1 mi
12:20 PM57 °FCool.13 mph100%29.83 "Hg1 mi
11:50 AM57 °FRain. Fog.18 mph100%29.86 "Hg1 mi
11:20 AM57 °FRain showers. Fog.12 mph100%29.86 "Hg1 mi
10:50 AM57 °FFog.8 mph100%29.86 "Hg2 mi
10:20 AM59 °FRain showers. Fog.7 mph100%29.83 "Hg1 mi
9:50 AM57 °FFog.7 mph100%29.83 "Hg2 mi
9:20 AM59 °FFog.9 mph100%29.83 "Hg1 mi
8:50 AM59 °FFog.12 mph100%29.83 "Hg0 mi
8:20 AM61 °FFog.8 mph100%29.86 "Hg1 mi
7:50 AM61 °FRain. Fog.12 mph100%29.86 "Hg1 mi
9:50 PM
Mon, Aug 31
73 °FClear.9 mph53%29.89 "Hg10 mi
9:20 PM75 °FClear.8 mph50%29.89 "Hg10 mi
8:50 PM77 °FSunny.6 mph44%29.89 "Hg10 mi
8:20 PM77 °FSunny.8 mph47%29.89 "Hg10 mi
7:50 PM77 °FSunny.7 mph47%29.89 "Hg10 mi
7:20 PM79 °FSunny.8 mph45%29.89 "Hg10 mi
6:50 PM82 °FPassing clouds.9 mph40%29.89 "HgN/A
6:20 PM82 °FPassing clouds.12 mph37%29.89 "HgN/A
5:50 PM84 °FPassing clouds.14 mph35%29.89 "HgN/A
5:20 PM84 °FSunny.13 mph35%29.89 "Hg10 mi
4:50 PM84 °FPassing clouds.13 mph37%29.89 "HgN/A
4:20 PM84 °FPassing clouds.13 mph35%29.92 "HgN/A
3:50 PM84 °FPassing clouds.15 mph35%29.92 "HgN/A
3:20 PM84 °FPassing clouds.13 mph31%29.92 "HgN/A
2:50 PM84 °FPassing clouds.15 mph31%29.95 "HgN/A
2:20 PM82 °FSunny.N/A40%29.95 "Hg10 mi
Weather by CustomWeather, © 2015

See weather overviewHow to use our weather pages